Weather History for Port Angeles, WA

Change the Weather History Date:

Wednesday, August 21, 2013

  Actual Average Record
Temperature  
Mean Temperature 62 °F -  
Max Temperature 81 °F 67 °F 81 °F (2013)
Min Temperature 46 °F 50 °F 40 °F (1987)
Degree Days  
Heating Degree Days 2    
Growing Degree Days 12 (Base 50)    
Moisture  
Dew Point 47 °F    
Average Humidity 59    
Maximum Humidity 90    
Minimum Humidity 27    
Precipitation  
Precipitation 0.00 in - - ()
Sea Level Pressure  
Sea Level Pressure 30.06 in    
Wind  
Wind Speed 4 mph (SSE)    
Max Wind Speed 12 mph    
Max Gust Speed -    
Visibility 10 miles    
Events      
Averages and records for this station are not official NWS values.
T = Trace of Precipitation, MM = Missing Value Source: NWS Daily Summary

Daily Weather History Graph

Daily Weather History Graph

Search for Another Location

Airport:

Trip Planner

Search our weather history database for the weather conditions in past years. The results will help you decide how hot, cold, wet, or windy it might be!

Date:

Astronomy

Aug. 21, 2013 Rise Set
Actual Time 6:17 AM PDT 8:15 PM PDT
Civil Twilight 5:43 AM PDT 8:49 PM PDT
Nautical Twilight 5:02 AM PDT 9:30 PM PDT
Astronomical Twilight 4:16 AM PDT 10:15 PM PDT
Moon 8:16 PM PDT 7:11 AM PDT
Length of Visible Light 15h 05m
Length of Day
13h 58m
Full, 99% of the Moon is Illuminated
Aug 21
Full
Aug 28
Last Quarter
Sep 5
New
Sep 12
First Quarter
Sep 19
Full

Hourly Weather History & Observations

Time (PDT) Temp. Dew Point Humidity Pressure Visibility Wind Dir Wind Speed Gust Speed Precip Events Conditions
12:53 AM 54.0 °F 48.0 °F 80% 30.12 in 10.0 mi SW 3.5 mph - N/A   Clear
1:53 AM 51.1 °F 46.9 °F 86% 30.12 in 10.0 mi Calm Calm - N/A   Clear
2:53 AM 46.9 °F 44.1 °F 90% 30.11 in 10.0 mi Calm Calm - N/A   Clear
3:53 AM 48.9 °F 44.1 °F 83% 30.11 in 10.0 mi Calm Calm - N/A   Clear
4:53 AM 55.0 °F 45.0 °F 69% 30.10 in 10.0 mi SW 10.4 mph - N/A   Clear
5:53 AM 55.0 °F 45.0 °F 69% 30.10 in 10.0 mi WSW 11.5 mph - N/A   Clear
6:53 AM 50.0 °F 44.1 °F 80% 30.11 in 10.0 mi Calm Calm - N/A   Clear
7:53 AM 61.0 °F 48.0 °F 62% 30.12 in 10.0 mi Calm Calm - N/A   Clear
8:53 AM 66.9 °F 48.0 °F 51% 30.12 in 10.0 mi East 6.9 mph - N/A   Clear
9:53 AM 68.0 °F 48.9 °F 50% 30.11 in 10.0 mi East 6.9 mph - N/A   Clear
10:53 AM 70.0 °F 50.0 °F 49% 30.11 in 10.0 mi ESE 8.1 mph - N/A   Clear
11:53 AM 70.0 °F 50.0 °F 49% 30.10 in 10.0 mi East 9.2 mph - N/A   Clear
12:53 PM 72.0 °F 50.0 °F 46% 30.09 in 10.0 mi Variable 5.8 mph - N/A   Clear
1:53 PM 73.0 °F 48.0 °F 41% 30.07 in 10.0 mi Variable 5.8 mph - N/A   Clear
2:53 PM 77.0 °F 43.0 °F 30% 30.04 in 10.0 mi East 8.1 mph - N/A   Clear
3:53 PM 78.1 °F 41.0 °F 27% 30.03 in 10.0 mi Variable 3.5 mph - N/A   Clear
4:53 PM 79.0 °F 46.0 °F 31% 30.01 in 10.0 mi NE 6.9 mph - N/A   Clear
5:53 PM 69.1 °F 48.0 °F 47% 30.00 in 10.0 mi North 6.9 mph - N/A   Clear
6:53 PM 68.0 °F 48.0 °F 49% 29.99 in 10.0 mi NW 5.8 mph - N/A   Clear
7:53 PM 64.9 °F 48.0 °F 54% 29.98 in 10.0 mi WSW 4.6 mph - N/A   Clear
8:53 PM 61.0 °F 48.9 °F 64% 29.98 in 10.0 mi Calm Calm - N/A   Clear
9:53 PM 57.0 °F 48.9 °F 74% 29.99 in 10.0 mi Calm Calm - N/A   Clear
10:53 PM 57.0 °F 46.9 °F 69% 29.98 in 10.0 mi SW 4.6 mph - N/A   Clear
11:53 PM 53.1 °F 45.0 °F 74% 29.97 in 10.0 mi SSE 3.5 mph - N/A   Clear